When you browse on this site, cookies collect data to enhance your experience and personalize the content and advertising you see.
Visit our Privacy Policy to learn more. By continuing to use the site, you agree to this use of cookies and data.
  • In Deutschland
  • Länderverzeichnis
  • Für 7 Tage
  • Wassertemperatur
  • Satellitenkarten
  • Wetterkarte
  • Widgets
  • user-avatar
    Anmelden

    Stündliche Wetter La Rioja

    Heute, 19 Juni, Mittwoch

    Zeit Temperatur Niederschläge Wind Luftdruck Luftfeuchtigkeit
    00:00 +9°C° 0 mm 2 m/S 718 mmHg 39%
    01:00 +9°C° 0 mm 2 m/S 718 mmHg 39%
    02:00 +9°C° 0 mm 2 m/S 718 mmHg 39%
    03:00 +9°C° 0 mm 1 m/S 717 mmHg 42%
    04:00 +8°C° 0 mm 1 m/S 717 mmHg 45%
    05:00 +7°C° 0 mm 0 m/S 717 mmHg 48%
    06:00 +7°C° 0 mm 0 m/S 717 mmHg 46%
    07:00 +8°C° 0 mm 0 m/S 718 mmHg 45%
    08:00 +8°C° 0 mm 0 m/S 718 mmHg 43%
    09:00 +12°C° 0 mm 1 m/S 719 mmHg 37%
    10:00 +14°C° 0 mm 1 m/S 719 mmHg 31%
    11:00 +18°C° 0 mm 1 m/S 720 mmHg 25%
    12:00 +19°C° 0 mm 1 m/S 719 mmHg 24%
    13:00 +20°C° 0 mm 1 m/S 719 mmHg 24%
    14:00 +21°C° 0 mm 1 m/S 718 mmHg 23%
    15:00 +20°C° 0 mm 1 m/S 718 mmHg 26%
    16:00 +19°C° 0 mm 1 m/S 717 mmHg 29%
    17:00 +19°C° 0 mm 1 m/S 717 mmHg 32%
    18:00 +16°C° 0 mm 1 m/S 717 mmHg 35%
    19:00 +14°C° 0 mm 1 m/S 718 mmHg 38%
    20:00 +13°C° 0 mm 1 m/S 718 mmHg 40%
    21:00 +12°C° 0 mm 1 m/S 718 mmHg 41%
    22:00 +12°C° 0 mm 1 m/S 718 mmHg 41%
    23:00 +12°C° 0 mm 1 m/S 718 mmHg 41%

    Morgen, 20 Juni, Donnerstag

    Zeit Temperatur Niederschläge Wind Luftdruck Luftfeuchtigkeit
    00:00 +12°C° 0 mm 1 m/S 717 mmHg 42%
    01:00 +11°C° 0 mm 1 m/S 717 mmHg 43%
    02:00 +11°C° 0 mm 1 m/S 717 mmHg 44%
    03:00 +11°C° 0 mm 1 m/S 717 mmHg 45%
    04:00 +10°C° 0 mm 1 m/S 716 mmHg 46%
    05:00 +10°C° 0 mm 1 m/S 716 mmHg 47%
    06:00 +10°C° 0 mm 1 m/S 716 mmHg 47%
    07:00 +10°C° 0 mm 1 m/S 716 mmHg 48%
    08:00 +10°C° 0 mm 1 m/S 716 mmHg 49%
    09:00 +12°C° 0 mm 2 m/S 716 mmHg 44%
    10:00 +15°C° 0 mm 2 m/S 716 mmHg 39%
    11:00 +17°C° 0 mm 2 m/S 716 mmHg 34%
    12:00 +17°C° 0 mm 2 m/S 716 mmHg 33%
    13:00 +18°C° 0 mm 2 m/S 715 mmHg 32%
    14:00 +19°C° 0 mm 2 m/S 714 mmHg 31%
    15:00 +20°C° 0 mm 1 m/S 713 mmHg 33%
    16:00 +19°C° 0 mm 1 m/S 713 mmHg 35%
    17:00 +19°C° 0 mm 1 m/S 713 mmHg 37%
    18:00 +16°C° 0 mm 1 m/S 713 mmHg 40%
    19:00 +15°C° 0 mm 1 m/S 713 mmHg 43%
    20:00 +13°C° 0 mm 1 m/S 713 mmHg 47%
    21:00 +13°C° 0 mm 1 m/S 713 mmHg 48%
    22:00 +11°C° 0 mm 0 m/S 713 mmHg 49%
    23:00 +11°C° 0 mm 0 m/S 713 mmHg 51%

    übermorgen, 21 Juni, Freitag

    Zeit Temperatur Niederschläge Wind Luftdruck Luftfeuchtigkeit
    00:00 +11°C° 0 mm 0 m/S 712 mmHg 53%
    01:00 +12°C° 0 mm 1 m/S 712 mmHg 54%
    02:00 +11°C° 0 mm 1 m/S 711 mmHg 56%
    03:00 +11°C° 0 mm 1 m/S 711 mmHg 60%
    04:00 +11°C° 0 mm 1 m/S 711 mmHg 64%
    05:00 +11°C° 0 mm 1 m/S 711 mmHg 68%
    06:00 +11°C° 0 mm 1 m/S 711 mmHg 65%
    07:00 +11°C° 0 mm 1 m/S 711 mmHg 62%
    08:00 +12°C° 0 mm 1 m/S 712 mmHg 59%
    09:00 +14°C° 0 mm 1 m/S 712 mmHg 54%
    10:00 +16°C° 0 mm 2 m/S 713 mmHg 50%
    11:00 +19°C° 0 mm 2 m/S 713 mmHg 45%
    12:00 +19°C° 0 mm 2 m/S 713 mmHg 44%
    13:00 +20°C° 0 mm 2 m/S 713 mmHg 44%
    14:00 +21°C° 0 mm 2 m/S 712 mmHg 44%
    15:00 +20°C° 0 mm 2 m/S 713 mmHg 50%
    16:00 +19°C° 0 mm 2 m/S 713 mmHg 55%
    17:00 +18°C° 0 mm 2 m/S 713 mmHg 60%
    18:00 +17°C° 0 mm 2 m/S 714 mmHg 67%
    19:00 +16°C° 0 mm 2 m/S 715 mmHg 74%
    20:00 +15°C° 0 mm 2 m/S 715 mmHg 80%
    21:00 +15°C° 0 mm 2 m/S 715 mmHg 78%
    22:00 +14°C° 0 mm 1 m/S 716 mmHg 77%
    23:00 +14°C° 0 mm 1 m/S 716 mmHg 77%

    22 Juni, Samstag

    Zeit Temperatur Niederschläge Wind Luftdruck Luftfeuchtigkeit
    00:00 +13°C° 0 mm 1 m/S 716 mmHg 77%
    01:00 +13°C° 0 mm 1 m/S 715 mmHg 77%
    02:00 +11°C° 0 mm 0 m/S 715 mmHg 77%
    03:00 +11°C° 0 mm 0 m/S 715 mmHg 78%
    04:00 +11°C° 0 mm 0 m/S 714 mmHg 78%
    05:00 +11°C° 0 mm 0 m/S 714 mmHg 79%
    06:00 +11°C° 0 mm 0 m/S 714 mmHg 77%
    07:00 +11°C° 0 mm 0 m/S 715 mmHg 74%
    08:00 +12°C° 0 mm 0 m/S 715 mmHg 72%
    09:00 +14°C° 0 mm 0 m/S 715 mmHg 64%
    10:00 +17°C° 0 mm 0 m/S 715 mmHg 56%
    11:00 +21°C° 0 mm 1 m/S 716 mmHg 48%
    12:00 +22°C° 0 mm 1 m/S 715 mmHg 45%
    13:00 +23°C° 0 mm 1 m/S 714 mmHg 42%
    14:00 +24°C° 0 mm 1 m/S 714 mmHg 39%
    15:00 +23°C° 0 mm 1 m/S 713 mmHg 44%
    16:00 +22°C° 0 mm 1 m/S 713 mmHg 48%
    17:00 +21°C° 0 mm 1 m/S 713 mmHg 53%
    18:00 +20°C° 0 mm 1 m/S 713 mmHg 57%
    19:00 +19°C° 0 mm 1 m/S 713 mmHg 61%
    20:00 +16°C° 0 mm 1 m/S 713 mmHg 65%
    21:00 +16°C° 0 mm 1 m/S 713 mmHg 67%
    22:00 +16°C° 0 mm 1 m/S 713 mmHg 69%
    23:00 +15°C° 0 mm 1 m/S 713 mmHg 71%

    23 Juni, Sonntag

    Zeit Temperatur Niederschläge Wind Luftdruck Luftfeuchtigkeit
    00:00 +15°C° 0 mm 1 m/S 712 mmHg 72%
    01:00 +14°C° 0 mm 0 m/S 712 mmHg 73%
    02:00 +13°C° 0 mm 0 m/S 711 mmHg 74%
    03:00 +13°C° 0 mm 0 m/S 711 mmHg 75%
    04:00 +13°C° 0 mm 0 m/S 711 mmHg 76%
    05:00 +12°C° 0 mm 0 m/S 710 mmHg 78%
    06:00 +13°C° 0 mm 0 m/S 710 mmHg 74%
    07:00 +13°C° 0 mm 0 m/S 710 mmHg 70%
    08:00 +14°C° 0 mm 0 m/S 710 mmHg 66%
    09:00 +16°C° 0 mm 0 m/S 711 mmHg 58%
    10:00 +19°C° 0 mm 0 m/S 711 mmHg 49%
    11:00 +24°C° 0 mm 1 m/S 711 mmHg 41%
    12:00 +25°C° 0 mm 1 m/S 710 mmHg 38%
    13:00 +26°C° 0 mm 1 m/S 709 mmHg 36%
    14:00 +27°C° 0 mm 2 m/S 709 mmHg 34%
    15:00 +26°C° 0 mm 1 m/S 708 mmHg 37%
    16:00 +26°C° 0 mm 1 m/S 708 mmHg 41%
    17:00 +25°C° 0 mm 1 m/S 707 mmHg 44%
    18:00 +23°C° 0 mm 1 m/S 707 mmHg 49%
    19:00 +21°C° 0 mm 1 m/S 707 mmHg 54%
    20:00 +19°C° 0 mm 1 m/S 707 mmHg 59%
    21:00 +19°C° 0 mm 1 m/S 707 mmHg 61%
    22:00 +19°C° 0 mm 1 m/S 707 mmHg 63%
    23:00 +18°C° 0 mm 1 m/S 707 mmHg 64%

    24 Juni, Montag

    Zeit Temperatur Niederschläge Wind Luftdruck Luftfeuchtigkeit
    00:00 +18°C° 0 mm 1 m/S 706 mmHg 68%
    01:00 +17°C° 0 mm 2 m/S 706 mmHg 71%
    02:00 +16°C° 0 mm 2 m/S 706 mmHg 74%
    03:00 +16°C° 0 mm 2 m/S 706 mmHg 76%
    04:00 +15°C° 0 mm 2 m/S 705 mmHg 77%
    05:00 +14°C° 0 mm 3 m/S 705 mmHg 79%
    06:00 +15°C° 0 mm 2 m/S 705 mmHg 80%
    07:00 +15°C° 0 mm 2 m/S 705 mmHg 80%
    08:00 +15°C° 0 mm 2 m/S 705 mmHg 81%
    09:00 +17°C° 0 mm 2 m/S 705 mmHg 70%
    10:00 +19°C° 0 mm 3 m/S 706 mmHg 60%
    11:00 +21°C° 0 mm 3 m/S 706 mmHg 50%
    12:00 +21°C° 0 mm 3 m/S 705 mmHg 48%
    13:00 +22°C° 0 mm 3 m/S 704 mmHg 46%
    14:00 +24°C° 0 mm 3 m/S 704 mmHg 44%
    15:00 +22°C° 0 mm 3 m/S 704 mmHg 46%
    16:00 +21°C° 0 mm 3 m/S 703 mmHg 49%
    17:00 +21°C° 0 mm 3 m/S 703 mmHg 51%
    18:00 +19°C° 0 mm 3 m/S 704 mmHg 56%
    19:00 +18°C° 0 mm 2 m/S 704 mmHg 60%
    20:00 +16°C° 0 mm 2 m/S 705 mmHg 65%
    21:00 +16°C° 0 mm 2 m/S 705 mmHg 65%
    22:00 +15°C° 0 mm 2 m/S 705 mmHg 66%
    23:00 +15°C° 0 mm 2 m/S 705 mmHg 67%
    Mehr zeigen